Weather History for Vidalia, GA

Change the Weather History Date:

Saturday, May 5, 2012

  Actual Average (KAZE) Record (KAZE)
Temperature  
Mean Temperature 82 °F -  
Max Temperature 95 °F 83 °F 72 °F (2013)
Min Temperature 69 °F 53 °F 54 °F (2013)
Cooling Degree Days 17    
Growing Degree Days 32 (Base 50)    
Moisture  
Dew Point 65 °F    
Average Humidity 59    
Maximum Humidity 88    
Minimum Humidity 32    
Precipitation  
Precipitation 0.00 in - - ()
Sea Level Pressure  
Sea Level Pressure 29.95 in    
Wind  
Wind Speed 5 mph (WSW)    
Max Wind Speed 14 mph    
Max Gust Speed 22 mph    
Visibility 10 miles    
Events      
Averages and records for this station are not official NWS values.
T = Trace of Precipitation, MM = Missing Value Source: NWS Daily Summary

Daily Weather History Graph

Daily Weather History Graph

Search for Another Location

Airport:

Trip Planner

Search our weather history database for the weather conditions in past years. The results will help you decide how hot, cold, wet, or windy it might be!

Date:

Astronomy

May. 05, 2012 Rise Set
Actual Time 6:39 AM EDT 8:13 PM EDT
Civil Twilight 6:12 AM EDT 8:39 PM EDT
Nautical Twilight 5:41 AM EDT 9:11 PM EDT
Astronomical Twilight 5:08 AM EDT 9:44 PM EDT
Moon 8:03 PM EDT (5/5) 6:00 AM EDT (5/5)
Length of Visible Light 14h 27m
Length of Day
13h 34m
Full, 100% of the Moon is Illuminated
May 5
Full
May 5
Full
May 12
Last Quarter
May 20
New
May 28
First Quarter

Hourly Weather History & Observations

Time (EDT) Temp. Heat Index Dew Point Humidity Pressure Visibility Wind Dir Wind Speed Gust Speed Precip Events Conditions
12:15 AM 77.0 °F - 68.0 °F 74% 29.99 in 10.0 mi Calm Calm - N/A   Clear
12:35 AM 77.0 °F - 68.0 °F 74% 29.99 in 10.0 mi Calm Calm - N/A   Scattered Clouds
12:55 AM 77.0 °F - 69.8 °F 78% 29.99 in 10.0 mi South 3.5 mph - N/A   Scattered Clouds
1:15 AM 75.2 °F - 69.8 °F 83% 29.97 in 10.0 mi South 4.6 mph - N/A   Clear
1:35 AM 75.2 °F - 68.0 °F 78% 29.97 in 10.0 mi SSW 4.6 mph - N/A   Clear
1:55 AM 75.2 °F - 68.0 °F 78% 29.97 in 10.0 mi SSW 5.8 mph - N/A   Clear
2:15 AM 73.4 °F - 68.0 °F 83% 29.97 in 10.0 mi SSW 3.5 mph - N/A   Clear
2:35 AM 73.4 °F - 68.0 °F 83% 29.96 in 10.0 mi SW 4.6 mph - N/A   Clear
2:55 AM 71.6 °F - 68.0 °F 88% 29.96 in 10.0 mi SW 4.6 mph - N/A   Clear
3:15 AM 71.6 °F - 68.0 °F 88% 29.96 in 10.0 mi SW 4.6 mph - N/A   Clear
3:35 AM 71.6 °F - 68.0 °F 88% 29.95 in 10.0 mi SW 4.6 mph - N/A   Clear
3:55 AM 71.6 °F - 66.2 °F 83% 29.96 in 10.0 mi SW 4.6 mph - N/A   Clear
4:15 AM 71.6 °F - 66.2 °F 83% 29.96 in 10.0 mi SW 4.6 mph - N/A   Clear
4:35 AM 71.6 °F - 66.2 °F 83% 29.96 in 10.0 mi WSW 4.6 mph - N/A   Clear
4:55 AM 69.8 °F - 66.2 °F 88% 29.96 in 10.0 mi WSW 3.5 mph - N/A   Clear
5:15 AM 71.6 °F - 66.2 °F 83% 29.96 in 10.0 mi Calm Calm - N/A   Clear
5:35 AM 71.6 °F - 66.2 °F 83% 29.97 in 10.0 mi WSW 4.6 mph - N/A   Clear
5:55 AM 69.8 °F - 66.2 °F 88% 29.98 in 10.0 mi SW 5.8 mph - N/A   Clear
6:15 AM 71.6 °F - 68.0 °F 88% 29.99 in 10.0 mi Calm Calm - N/A   Clear
6:35 AM 71.6 °F - 68.0 °F 88% 29.99 in 10.0 mi West 3.5 mph - N/A   Clear
6:55 AM 71.6 °F - 68.0 °F 88% 29.99 in 10.0 mi WSW 4.6 mph - N/A   Mostly Cloudy
7:15 AM 71.6 °F - 68.0 °F 88% 30.00 in 10.0 mi WSW 3.5 mph - N/A   Overcast
7:35 AM 71.6 °F - 68.0 °F 88% 30.00 in 10.0 mi WSW 4.6 mph - N/A   Mostly Cloudy
7:55 AM 73.4 °F - 68.0 °F 83% 30.00 in 10.0 mi WSW 4.6 mph - N/A   Scattered Clouds
8:15 AM 75.2 °F - 69.8 °F 83% 30.01 in 10.0 mi West 4.6 mph - N/A   Mostly Cloudy
8:35 AM 75.2 °F - 69.8 °F 83% 30.01 in 10.0 mi West 4.6 mph - N/A   Scattered Clouds
8:55 AM 78.8 °F - 69.8 °F 74% 30.01 in 10.0 mi West 5.8 mph - N/A   Clear
9:15 AM 80.6 °F 83.9 °F 69.8 °F 70% 30.02 in 10.0 mi West 9.2 mph - N/A   Clear
9:35 AM 80.6 °F 83.9 °F 69.8 °F 70% 30.01 in 10.0 mi NW 6.9 mph - N/A   Clear
9:55 AM 82.4 °F 86.3 °F 69.8 °F 66% 30.02 in 10.0 mi WNW 8.1 mph - N/A   Clear
10:15 AM 84.2 °F 88.4 °F 69.8 °F 62% 30.02 in 10.0 mi West 6.9 mph - N/A   Clear
10:35 AM 86.0 °F 90.4 °F 69.8 °F 58% 30.02 in 10.0 mi West 9.2 mph - N/A   Clear
10:55 AM 86.0 °F 90.4 °F 69.8 °F 58% 30.02 in 10.0 mi West 9.2 mph - N/A   Scattered Clouds
11:15 AM 87.8 °F 92.6 °F 69.8 °F 55% 30.02 in 10.0 mi West 10.4 mph - N/A   Scattered Clouds
11:35 AM 87.8 °F 91.4 °F 68.0 °F 52% 30.02 in 10.0 mi WSW 11.5 mph - N/A   Scattered Clouds
11:55 AM 89.6 °F 91.1 °F 64.4 °F 43% 30.01 in 10.0 mi West 9.2 mph 17.3 mph N/A   Scattered Clouds
12:15 PM 87.8 °F 90.4 °F 66.2 °F 49% 30.01 in 10.0 mi WNW 8.1 mph 16.1 mph N/A   Mostly Cloudy
12:35 PM 91.4 °F 93.2 °F 64.4 °F 41% 30.00 in 10.0 mi WNW 12.7 mph 16.1 mph N/A   Scattered Clouds
12:55 PM 91.4 °F 93.2 °F 64.4 °F 41% 29.99 in 10.0 mi WSW 11.5 mph 17.3 mph N/A   Scattered Clouds
1:15 PM 91.4 °F 93.2 °F 64.4 °F 41% 29.98 in 10.0 mi WNW 9.2 mph - N/A   Clear
1:35 PM 91.4 °F 93.2 °F 64.4 °F 41% 29.97 in 10.0 mi SW 9.2 mph - N/A   Scattered Clouds
1:55 PM 93.2 °F 94.1 °F 62.6 °F 36% 29.96 in 10.0 mi WSW 6.9 mph 18.4 mph N/A   Scattered Clouds
2:15 PM 95.0 °F 96.0 °F 62.6 °F 34% 29.95 in 10.0 mi WSW 13.8 mph 21.9 mph N/A   Scattered Clouds
2:35 PM 93.2 °F 94.1 °F 62.6 °F 36% 29.94 in 10.0 mi WNW 8.1 mph - N/A   Scattered Clouds
2:55 PM 95.0 °F 96.0 °F 62.6 °F 34% 29.93 in 10.0 mi NW 6.9 mph 17.3 mph N/A   Scattered Clouds
3:15 PM 95.0 °F 96.0 °F 62.6 °F 34% 29.92 in 10.0 mi NW 4.6 mph - N/A   Scattered Clouds
3:35 PM 95.0 °F 96.0 °F 62.6 °F 34% 29.91 in 10.0 mi WSW 11.5 mph - N/A   Clear
3:55 PM 95.0 °F 96.0 °F 62.6 °F 34% 29.91 in 10.0 mi WNW 6.9 mph 16.1 mph N/A   Clear
4:15 PM 95.0 °F 96.0 °F 62.6 °F 34% 29.89 in 10.0 mi WNW 9.2 mph - N/A   Scattered Clouds
4:35 PM 93.2 °F 93.3 °F 60.8 °F 34% 29.88 in 10.0 mi West 4.6 mph 16.1 mph N/A   Scattered Clouds
4:55 PM 93.2 °F 93.3 °F 60.8 °F 34% 29.87 in 10.0 mi WSW 5.8 mph - N/A   Scattered Clouds
5:15 PM 95.0 °F 95.2 °F 60.8 °F 32% 29.87 in 10.0 mi SW 10.4 mph 17.3 mph N/A   Clear
5:35 PM 95.0 °F 95.2 °F 60.8 °F 32% 29.87 in 10.0 mi West 10.4 mph - N/A   Clear
5:55 PM 95.0 °F 95.2 °F 60.8 °F 32% 29.86 in 10.0 mi WSW 6.9 mph - N/A   Clear
6:15 PM 95.0 °F 95.2 °F 60.8 °F 32% 29.85 in 10.0 mi West 6.9 mph - N/A   Clear
6:35 PM 95.0 °F 95.2 °F 60.8 °F 32% 29.85 in 10.0 mi WSW 10.4 mph - N/A   Clear
6:55 PM 93.2 °F 93.3 °F 60.8 °F 34% 29.85 in 10.0 mi WSW 9.2 mph - N/A   Clear
7:15 PM 91.4 °F 91.4 °F 60.8 °F 36% 29.85 in 10.0 mi WSW 8.1 mph - N/A   Clear
7:35 PM 91.4 °F 91.4 °F 60.8 °F 36% 29.86 in 10.0 mi WSW 8.1 mph - N/A   Clear
7:55 PM 89.6 °F 89.5 °F 60.8 °F 38% 29.87 in 10.0 mi West 3.5 mph - N/A   Clear
8:15 PM 89.6 °F 89.5 °F 60.8 °F 38% 29.87 in 10.0 mi WSW 3.5 mph - N/A   Clear
8:35 PM 87.8 °F 88.5 °F 62.6 °F 43% 29.87 in 10.0 mi WSW 4.6 mph - N/A   Clear
8:55 PM 86.0 °F 86.6 °F 62.6 °F 45% 29.88 in 10.0 mi WSW 3.5 mph - N/A   Clear
9:15 PM 84.2 °F 85.0 °F 62.6 °F 48% 29.89 in 10.0 mi Calm Calm - N/A   Clear
9:35 PM 84.2 °F 85.0 °F 62.6 °F 48% 29.89 in 10.0 mi WSW 3.5 mph - N/A   Clear
9:55 PM 82.4 °F 83.4 °F 62.6 °F 51% 29.89 in 10.0 mi WSW 4.6 mph - N/A   Clear
10:15 PM 80.6 °F 81.8 °F 62.6 °F 54% 29.89 in 10.0 mi WSW 4.6 mph - N/A   Clear
10:35 PM 80.6 °F 81.8 °F 62.6 °F 54% 29.90 in 10.0 mi WSW 5.8 mph - N/A   Clear
10:55 PM 80.6 °F 81.8 °F 62.6 °F 54% 29.89 in 10.0 mi WSW 5.8 mph - N/A   Clear
11:15 PM 80.6 °F 81.5 °F 60.8 °F 51% 29.90 in 10.0 mi WSW 6.9 mph - N/A   Clear
11:35 PM 82.4 °F 82.9 °F 60.8 °F 48% 29.91 in 10.0 mi WSW 6.9 mph - N/A   Clear
11:55 PM 80.6 °F 81.5 °F 60.8 °F 51% 29.91 in 10.0 mi WSW 5.8 mph - N/A   Clear